Flag for Canada Weather past 2 weeks in Mount Pearl, Newfoundland and Labrador, Canada

Now
59 °F

Fog.


Feels Like: 57 °F
Forecast: 52 / 65 °F
Wind: 10 mph from Northeast

Location: St. John's

Current Time: Sep 1, 2014 at 4:46:28 PM

Latest Report: Sep 1, 2014 at 4:16 PM


Visibility: 2 mi

Pressure: 29.96 "Hg

Humidity: 100%

Dew point: 59 °F

Location of Mount PearlLocation

Historic Weather in Mount Pearl — Graph

°F

Mount Pearl temperature yesterday

Maximum temperature yesterday: 66 °F (at 3:30 PM)
Minimum temperature yesterday: 55 °F (at 12:30 AM)
Average temperature yesterday: 61 °F

Past Weeks' High & Low Weather Summary

 TemperatureHumidityPressure
High75 °F (Aug 27, 1:30 PM)100% (Aug 18, 3:30 PM)30.22 "Hg (Aug 18, 3:30 PM)
Low43 °F (Aug 30, 3:30 AM)52% (Aug 30, 1:30 PM)29.59 "Hg (Aug 29, 7:30 AM)
Average58 °F91%29.93 "Hg
* Reported Aug 17 3:30 PM — Sep 1 3:30 PM, Mount Pearl, Weather by CustomWeather, © 2014

Note: Actual official high and low records may vary slightly from our data, if they occured in-between our weather recording intervals... More about our weather records

Advertising

Mount Pearl weather history for previous 24 hours

 ConditionsComfort  
Time TempWeatherWind HumidityBarometerVisibility
3:30 PM
Sep 1
63 °FMore clouds than sun.7 mph94%29.94 "Hg15 mi
2:30 PM61 °FDrizzle. Fog.9 mph94%29.93 "Hg1 mi
1:30 PM61 °FDrizzle. Mostly cloudy.6 mph100%29.92 "Hg12 mi
12:30 PM63 °FMostly cloudy.10 mph94%29.92 "Hg15 mi
11:30 AM63 °FMostly cloudy.7 mph100%29.92 "Hg15 mi
10:30 AM63 °FLow clouds.6 mph94%29.91 "Hg15 mi
9:30 AM63 °FDrizzle. Low clouds.3 mph94%29.91 "Hg12 mi
8:30 AM61 °FDrizzle. Low clouds.9 mph100%29.91 "Hg10 mi
7:30 AM61 °FSprinkles. Low clouds.6 mph100%29.90 "Hg10 mi
6:30 AM61 °FSprinkles. Overcast.16 mph94%29.89 "Hg12 mi
5:30 AM61 °FSprinkles. Mostly cloudy.13 mph100%29.89 "Hg10 mi
4:30 AM61 °FSprinkles. Low clouds.16 mph100%29.88 "Hg8 mi
3:30 AM61 °FSprinkles. Overcast.15 mph94%29.88 "Hg15 mi
2:30 AM61 °FSprinkles. Mostly cloudy.16 mph94%29.89 "Hg12 mi
1:30 AM61 °FSprinkles. Mostly cloudy.16 mph100%29.90 "Hg8 mi
12:30 AM61 °FSprinkles. Overcast.17 mph94%29.92 "Hg10 mi
11:30 PM
Aug 31
61 °FSprinkles. Overcast.15 mph94%29.93 "Hg10 mi
10:30 PM61 °FSprinkles. Mostly cloudy.17 mph94%29.94 "Hg10 mi
9:30 PM61 °FSprinkles. Mostly cloudy.15 mph94%29.94 "Hg10 mi
8:30 PM61 °FSprinkles. Mostly cloudy.20 mph94%29.95 "Hg12 mi
7:30 PM63 °FSprinkles. Overcast.18 mph88%29.94 "Hg15 mi
6:30 PM63 °FOvercast.22 mph83%29.95 "Hg15 mi
5:30 PM64 °FMostly cloudy.22 mph78%29.95 "Hg15 mi
4:30 PM66 °FBroken clouds.24 mph73%29.96 "Hg15 mi
Weather by CustomWeather, © 2014

See weather overviewHow to use our weather pages